www.pogodaiklimat.ru

Погода и климат >> Архив погоды >> Канада >> Нунавут >> Ресольют Бэй


ПОГОДА в Ресольют Бэй

  • Прогноз погоды в Ресольют Бэй
  • Монитор погоды в Ресольют Бэй

АРХИВ ПОГОДЫ в Ресольют Бэй

Время (UTC), дата Ветер
(напр.,м/с)
 
Видим.   Явления Облачность Т
(С)
Тd
(С)
f
(%)
Тe
(С)
Тes
(С)
Комфортность P
(гПа)
Po
(гПа)
Тmin
(С)
Tmax
(С)
R
(мм)
R24
(мм)
S
(см)
21 16.07 В 10 12 км 8/8 1500 м
[]
+8.0 +5.1 82 +3 +3 1003.2 994.6
00 17.07 В 11 12 км 8/8 1000 м
[Sc]
+7.9 +5.4 84 +2 +2 1002.9 994.3 +3.5 +8.6 1
03 17.07 В 13 24 км 9/9 1000 м
[]
+6.0 +3.6 85 -1 -1 1002.9 994.3
06 17.07 В 13 24 км 9/9 1500 м
[Sc diur, vesp]
+4.3 +2.4 87 -3 -3 1002.6 994.0 +3.5 +8.6 62
09 17.07 В 12 12 км 10/10 1000 м
[]
+4.0 +3.0 93 -3 -3 1002.9 994.3
12 17.07 В 11 24 км 10/10 50 м
[Sc diur, vesp]
+5.2 +3.4 88 -1 -1 1003.1 994.5 +3.7 +8.6
15 17.07 ЮВ 7 19 км 8/8 1500 м
[]
+5.8 +3.9 88 0 +1 1003.2 994.6
18 17.07 Ю 2 16 км слаб. морось 9/9 600 м
[Sc]
+5.5 +3.9 89 +3 +4 1003.3 994.7 +3.7 +6.6 0.0 1
21 17.07 СЗ 4 16 км 10/10 100 м
[]
+5.8 +4.9 94 +2 +2 1003.3 994.7
00 18.07 ЮЗ 1 24 км 10/10 600 м
[Sc As op]
+5.9 +4.0 88 +5 +5 1003.7 995.1 +3.7 +7.5 1
03 18.07 С 1 12 км 10/10 300 м
[]
+6.0 +5.3 95 +6 +6 1003.8 995.2
06 18.07 С 6 11 км слаб. дождь 10/10 1000 м
[Sc diur, vesp]
+6.6 +5.2 91 +2 +2 1003.8 995.2 +3.7 +7.5 0.0 72
09 18.07 СВ 9 16 км 10/10 1000 м
[]
+6.2 +3.8 85 +1 +1 1003.6 995.0
12 18.07 СВ 9 24 км 10/0
[Ac lent]
+6.1 +3.6 84 0 +1 1004.2 995.6 +5.8 +7.5
15 18.07 СВ 10 19 км 8/0
[]
+7.6 +3.5 75 +2 +2 1004.2 995.6
18 18.07 С 7 19 км 5/5
[Ac As]
+10.5 +4.9 68 +7 +8 1004.9 996.3 +5.2 +10.6 1
21 18.07 С 7 19 км 6/0
[]
+12.0 +5.1 63 +9 +10 1005.0 996.4
00 19.07 С 5 16 км слаб. дождь 10/1 300 м
[Sc As trans]
+10.9 +7.0 77 +8 +9 1004.9 996.3 +6.0 +12.6 0.0 1
03 19.07 С 5 45 км 10/10 1000 м
[]
+9.6 +7.1 84 +6 +6 1004.0 995.4
06 19.07 СЗ 5 45 км {дождь} 10/0 2000 м
[Ac As]
+7.6 +5.8 88 +4 +4 1003.5 994.9 +6.0 +12.6 0.2 161
09 19.07 С 8 45 км 10/0 2000 м
[]
+6.5 +4.5 87 +1 +1 1003.2 994.6
12 19.07 СЗ 5 30 км слаб. дождь 10/10 200 м
[St]
+5.1 +3.9 92 +1 +1 1004.3 995.7 +4.3 +12.6 0.0
15 19.07 С 7 16 км 10/10 200 м
[]
+6.8 +5.2 90 +2 +2 1004.6 996.0
18 19.07 С 8 19 км 10/10 300 м
[Sc]
+7.2 +4.9 85 +2 +2 1005.5 996.9 +4.3 +7.6 0.0 1
21 19.07 С 7 19 км 10/10 300 м
[]
+7.2 +4.3 82 +2 +2 1007.0 998.4
00 20.07 С 7 19 км 10/10 300 м
[Sc]
+7.2 +4.6 84 +3 +3 1008.2 999.5 +4.3 +7.6 1
03 20.07 СЗ 3 45 км 10/10 600 м
[]
+6.0 +3.7 85 +3 +3 1008.9 1000.2
06 20.07 СЗ 2 45 км 10/10 1000 м
[Sc]
+3.8 +2.5 91 +1 +1 1009.8 1001.1 +3.1 +7.6 101
09 20.07 СЗ 3 24 км 9/9 50 м
[]
+0.6 +0.1 96 -4 -4 1010.7 1002.0
12 20.07 З 2 6000 м 10/10 50 м
[St]
+0.6 0.0 96 -3 -3 1011.2 1002.5 +0.4 +7.6
15 20.07 З 3 1200 м н/о +1.1 +0.6 96 -3 -3 1011.4 1002.7
18 20.07 З 3 16 км 10/4 300 м
[St Ac lent]
+3.4 +1.4 87 -0 +1 1011.7 1003.0 +0.4 +3.8
00 21.07 ЮВ 6 3600 м слаб. морось {дождь} 10/10 50 м
[St]
+2.7 +2.4 98 -3 -3 1011.2 1002.4 1
03 21.07 ЮВ 5 600 м н/о +2.8 +2.5 98 -3 -3 1010.1 1001.3
06 21.07 З 3 600 м туман н/о +1.4 +1.1 98 -3 -3 1010.5 1001.8 2
09 21.07 З 4 400 м н/о +1.1 +0.9 99 -4 -4 1011.5 1002.7
12 21.07 З 4 400 м туман н/о +0.2 0.0 99 -6 -6 1012.2 1003.4 +0.1
15 21.07 З 3 400 м н/о +0.3 +0.1 99 -5 -5 1012.1 1003.3
18 21.07 ЮВ 4 8000 м {морось} 10/10 100 м
[St]
+2.2 +2.0 99 -3 -3 1011.2 1002.4 +2.6 0.0
21 21.07 ЮВ 7 11 км 10/10 50 м
[]
+4.1 +3.8 98 -2 -2 1009.4 1000.7
00 22.07 ЮВ 12 24 км 10/10 1500 м
[Sc diur, vesp]
+7.0 +4.6 85 +1 +1 1006.3 997.6 +0.1 +7.2
03 22.07 ЮВ 13 14 км 10/10 600 м
[]
+6.9 +5.8 93 0 0 1001.5 992.8
06 22.07 Ю 7 400 м туман {дождь} н/о +2.7 +2.4 98 -4 -4 1000.5 991.8 +0.1 +7.2 9 42
09 22.07 Ю 7 600 м н/о +2.1 +1.9 99 -5 -5 1000.8 992.1
12 22.07 ЮЗ 8 1200 м дымка {туман} н/о +0.7 +0.5 99 -7 -7 1001.7 993.1 +0.5 +7.2
15 22.07 З 9 600 м н/о +0.6 +0.4 99 -7 -7 1003.4 994.7
18 22.07 З 7 19 км {морось, туман} 10/10 200 м
[St]
+0.3 -0.2 96 -7 -7 1006.4 997.7 -0.1 +2.7 0.0
21 22.07 З 8 11 км 10/10 50 м
[]
+1.0 +0.4 96 -6 -6 1008.3 999.6
00 23.07 З 7 400 м туман н/о +0.4 0.0 97 -7 -7 1009.0 1000.2 -0.1 +1.9
03 23.07 З 5 400 м н/о 0.0 -0.2 99 -6 -6 1008.9 1000.1
06 23.07 ЮЗ 5 400 м туман {снег} н/о -0.2 -0.4 99 -7 -7 1008.9 1000.1 -0.2 +2.7 0.0 151
09 23.07 ЮЗ 5 3200 м 10/10 50 м
[]
-0.3 -0.5 99 -7 -7 1008.6 999.8
12 23.07 ЮЗ 6 12 км {снег, туман} 10/10 50 м
[St]
-0.6 -1.1 96 -7 -7 1008.0 999.2 -0.9 +2.7 0.0
15 23.07 ЮЗ 5 1600 м 3/3 50 м
[]
-0.2 -0.6 97 -7 -5 1007.7 998.9
18 23.07 4800 м дымка {туман} н/о +0.1 -0.2 98 -5 -3 1007.5 998.7 -0.9 +0.3 0.0 1

 

Местоположение метеостанции Ресольют Бэй (Нунавут, Канада): широта 74.72 долгота -94.98 высота над уровнем моря 67 м.

В архиве по умолчанию представлена погода в Ресольют Бэй за последнюю неделю. Архивные данные за месяц целиком и за предыдущие месяцы, начиная с января 2011 года, Вы можете получить, выбрав интересующий диапазон дат из раскрывающегося списка и нажав кнопку "Ввод!".


*Определитесь, кто Вы:
робот инопланетянин человек

Внимание! Время в таблицах - всемирное. Для получения местного времени необходимо прибавить поправку, которая равна -6 ч.

Смотрите также архив погоды в соседних городах и на ближайших метеорологических станциях:

Погода в Аэропорту Ресольют Бэй (Нунавут, Канада) (1 км)
Погода на Острове Стефанссон (Нунавут, Канада) (326 км)
Погода в Арктик Бей (Нунавут, Канада) (362 км)
Погода в Исачсене (Нунавут, Канада) (500 км)
Погода в Понд-Инлете (Нунавут, Канада) (574 км)
Погода в Понд-Инлете (Нунавут, Канада) (575 км)
Погода в Талойоаке (Нунавут, Канада) (577 км)
Погода в Сарнии (Онтарио, Канада) (599 км)
Погода в Юрике (Нунавут, Канада) (623 км)
Погода в Юрике (Нунавут, Канада) (624 км)

Пояснения к столбцам:

Ветер - указаны скорость ветра в м/с - средняя за 10 мин, порывы в срок и между сроками (в фигурных скобках) и направление, откуда дует ветер: С - северный, СВ - северо-восточный, В - восточный, ЮВ - юго-восточный, Ю - южный, ЮЗ - юго-западный, З - западный, СЗ - северо-западный.
Видимость - горизонтальная дальность видимости в метрах или километрах. При видимости от 1 до 10 км при отсутствии осадков обычно наблюдается дымка, при ухудшении видимости до 1 км и менее - туман. В сухую погоду видимость может ухудшаться дымом, пылью или мглою.
Явления - указаны атмосферные явления, наблюдавшиеся в срок или в последний час перед сроком; фигурными скобками обозначены явления, наблюдавшиеся между сроками (за 1-3 часа до срока); квадратными скобками обозначены град или гололедные отложения с указанием их диаметра в мм.
Облачность - указаны через наклонную черту общая и нижняя облачность в баллах и высота нижней границы облаков в метрах; квадратными скобками обозначены формы облаков: Ci - перистые, Cs - перисто-слоистые, Cc - перисто-кучевые, Ac - высококучевые, As - высокослоистые, Sc - слоисто-кучевые, Ns - слоисто-дождевые, Cu - кучевые, Cb - кучево-дождевые. Подробнее классификацию облаков см. в Атласе облаков (PDF).
T - Температура воздуха - температура, измеренная на высоте 2 м над землей.
Td - Температура точки росы - температура, при понижении до которой содержащийся в воздухе водяной пар достигнет насыщения.
f - Относительная влажность воздуха - влажноcть воздуха, измеренная на высоте 2 м над землей.
Te - Эффективная температура - температура, которую ощущает одетый по сезону человек в тени. Характеристика душности погоды. При расчете учитывается влияние влажности воздуха и скорости ветра на теплоощущения человека.
Tes - Эффективная температура на солнце - температура, которую ощущает человек, с поправкой на солнечный нагрев. Характеристика знойности погоды. Зависит от высоты солнца над горизонтом, облачности и скорости ветра. Ночью, в пасмурную погоду, а также при ветре 12 м/с и более поправка равна нулю.
P - Атмосферное давление - приведенное к уровню моря атмосферное давление.
Po - Атмосферное давление - измеренное на уровне метеостанции атмосферное давление.
Tmin - Минимальная температура - минимум температуры воздуха на высоте 2 м над землей.
Tmax - Максимальная температура - максимум температуры воздуха на высоте 2 м над землей.
R - Количество осадков - Количество выпавших осадков за период времени, мм. При наведении курсора мыши на число - период времени, за который выпало указанное количество осадков.
R24 - Количество осадков - Количество выпавших осадков за 24 часа, мм.
S - Снежный покров - Высота снежного покрова, см. При наведении курсора мыши на число - состояние снежного покрова и степень покрытия местности в баллах.